Simultaneous Nadir Overpasses (SNOs) Predictions

Prediction of SNOs near equator between AQUA and NPP Satellite Orbit:

Table of predicted SNOs near equator for the next 14.0 days since TLE Epoch: 12/7/2013
Index Date (AQUA) Time (AQUA) AQUA Lat,Lon Date (NPP) Time (NPP) NPP Lat,Lon Distance(km) Time Diff (sec)
1 12/07/2013 07:54:16 8.15, 84.16 12/07/2013 07:45:07 8.15, 84.16 0.50 549
2 12/07/2013 08:41:01 1.34,-106.16 12/07/2013 08:33:06 1.37,-106.36 23.14 475
3 12/07/2013 09:29:17 -5.87, 62.43 12/07/2013 09:22:37 -5.96, 61.97 52.32 400
4 12/07/2013 10:17:23 10.47,-128.92 12/07/2013 10:11:59 10.60,-129.65 80.92 324
5 12/09/2013 23:25:43 -24.45, 28.73 12/09/2013 23:15:56 -24.46, 28.73 0.47 587
6 12/10/2013 00:08:51 1.36,-158.50 12/10/2013 00:00:11 1.33,-158.54 4.79 520
7 12/10/2013 00:56:58 3.18, 10.12 12/10/2013 00:49:34 3.24, 9.82 34.33 444
8 12/10/2013 01:45:13 -7.77, 178.73 12/10/2013 01:39:04 -7.89, 178.17 63.19 369
9 12/10/2013 02:33:20 12.30, -12.63 12/10/2013 02:28:27 12.47, -13.45 91.30 293
10 12/12/2013 15:39:09 -13.57, 147.14 12/12/2013 15:29:50 -13.57, 147.15 1.07 559
11 12/12/2013 16:24:46 -0.56, -42.20 12/12/2013 16:16:38 -0.60, -42.34 16.07 488
12 12/12/2013 17:12:53 5.09, 126.43 12/12/2013 17:06:01 5.17, 126.02 45.71 412
13 12/12/2013 18:01:08 -9.68, -64.97 12/12/2013 17:55:31 -9.82, -65.63 74.17 337
14 12/15/2013 07:10:16 28.30, 91.91 12/15/2013 07:00:19 28.29, 91.92 0.95 597
15 12/15/2013 07:52:42 -3.19, -94.72 12/15/2013 07:43:52 -3.19, -94.72 0.29 530
16 12/15/2013 08:40:38 -2.55, 74.12 12/15/2013 08:33:03 -2.58, 73.87 27.84 455
17 12/15/2013 09:28:45 7.08,-117.25 12/15/2013 09:22:25 7.22,-117.75 57.17 380
18 12/15/2013 10:17:00 -11.67, 51.36 12/15/2013 10:11:56 -11.81, 50.59 85.15 304
19 12/17/2013 23:24:05 18.88,-149.92 12/17/2013 23:14:38 18.88,-149.92 0.56 567
20 12/18/2013 00:08:15 -0.03, 21.85 12/17/2013 23:59:58 -0.03, 21.75 10.54 497
21 12/18/2013 00:56:30 -4.56,-169.55 12/18/2013 00:49:28 -4.62,-169.91 39.65 422
22 12/18/2013 01:44:37 9.09, -0.92 12/18/2013 01:38:51 9.20, -1.54 68.70 346
23 12/18/2013 02:32:52 -13.67, 167.70 12/18/2013 02:28:21 -13.84, 166.83 95.96 271
24 12/20/2013 14:54:03 -29.94, 155.66 12/20/2013 14:44:03 -30.25, 155.62 33.71 600
25 12/20/2013 15:37:29 7.99, -31.61 12/20/2013 15:28:32 7.98, -31.60 0.34 537
26 12/20/2013 16:24:06 1.99, 138.18 12/20/2013 16:16:22 2.06, 137.99 22.56 464
27 12/20/2013 17:12:21 -6.58, -53.22 12/20/2013 17:05:53 -6.65, -53.68 51.74 388
28 12/20/2013 18:00:28 11.11, 115.42 12/20/2013 17:55:15 11.29, 114.71 80.12 313




NCC Satellite Simultaneous Nadir Overpasses (SNOs) Prediction Service
